Flag for Hungary Weather past 2 weeks in Miskolc, Hungary

Now
75 °F

Partly sunny.


Feels Like: 77 °F
Forecast: 50 / 67 °F
Wind: 3 mph from South

Location: Miskolc

Current Time: Apr 27, 2015 at 7:14:00 PM

Latest Report: Apr 27, 2015 at 6:00 PM


Visibility: 25 mi

Pressure: 29.72 "Hg

Humidity: 33%

Dew point: 44 °F

Location of MiskolcLocation

Historic Weather in Miskolc — Graph

°F

Miskolc temperature yesterday

Maximum temperature yesterday: 71 °F (at 1:00 PM)
Minimum temperature yesterday: 46 °F (at 6:00 AM)
Average temperature yesterday: 60 °F

Past Weeks' High & Low Weather Summary

 TemperatureHumidityPressure
High81 °F (Apr 16, 2:00 PM)86% (Apr 27, 6:00 AM)30.33 "Hg (Apr 27, 6:00 AM)
Low31 °F (Apr 19, 6:00 AM)14% (Apr 16, 5:00 PM)29.74 "Hg (Apr 27, 5:00 PM)
Average56 °F49%30.02 "Hg
* Reported Apr 12 5:00 PM — Apr 27 5:00 PM, Miskolc, Weather by CustomWeather, © 2015

Note: Actual official high and low records may vary slightly from our data, if they occured in-between our weather recording intervals... More about our weather records

Advertising

Miskolc weather history for previous 24 hours

 ConditionsComfort  
Time TempWeatherWind HumidityBarometerVisibility
5:00 PM
Mon, Apr 27
76 °FPartly sunny.3 mph34%29.74 "Hg25 mi
4:00 PM75 °FPartly sunny.3 mph35%29.75 "Hg25 mi
3:00 PM75 °FOvercast.5 mph35%29.76 "Hg25 mi
2:00 PM75 °FOvercast.6 mph38%29.77 "Hg25 mi
1:00 PM73 °FPartly sunny.5 mph42%29.78 "Hg25 mi
12:00 PM71 °FScattered clouds.5 mph46%29.80 "Hg25 mi
11:00 AM69 °FScattered clouds.3 mph50%29.80 "Hg25 mi
10:00 AM65 °FPassing clouds.2 mph57%29.81 "Hg22 mi
9:00 AM61 °FPassing clouds.2 mph62%29.82 "Hg19 mi
8:00 AM57 °FPassing clouds.No wind72%29.83 "Hg19 mi
7:00 AM49 °FPassing clouds.No wind84%29.84 "Hg16 mi
6:00 AM47 °FPassing clouds.No wind86%29.83 "Hg12 mi
5:00 AM47 °FPassing clouds.No wind85%29.82 "Hg12 mi
4:00 AM48 °FClear.No wind84%29.83 "Hg12 mi
3:00 AM48 °FPassing clouds.No wind81%29.83 "Hg12 mi
2:00 AM50 °FClear.1 mph80%29.82 "Hg12 mi
1:00 AM51 °FClear.1 mph79%29.83 "Hg16 mi
12:00 AM52 °FClear.1 mph76%29.82 "Hg16 mi
11:00 PM
Sun, Apr 26
54 °FClear.No wind73%29.83 "Hg19 mi
10:00 PM56 °FClear.1 mph68%29.82 "Hg19 mi
9:00 PM59 °FPassing clouds.1 mph65%29.81 "Hg19 mi
8:00 PM63 °FPassing clouds.1 mph57%29.80 "Hg22 mi
7:00 PM68 °FScattered clouds.1 mph43%29.79 "Hg22 mi
Weather by CustomWeather, © 2015

See weather overviewHow to use our weather pages